YAHSAT 1B (38245 NORAD) Tracking and Keplerian Element Data

This shows tracking and keplerian element data for the satellite.

Feedback or suggestion? Click here.




ElementValue
Catalog38245
NameYAHSAT 1B
Epoch Orbit4381
Epoch Day353.99469449
Epoch Year2025
RAAN91.4956
Inclination0.061
Eccentricity0.0002707
Argument of Perigee204.5438
Mean Anonmoly198.4836
Mean Motion1.00270519
Decay Rate1.51E-06
L11 38245U 12016A 25353.99469449 .00000151 00000+0 00000+0 0 9999
L22 38245 0.0610 91.4956 0002707 204.5438 198.4836 1.00270519 43817



Live tracking and technical data element details for YAHSAT 1B (NORAD 38245). YAHSAT 1B can be tracked NOW for your location showing map with azimuth and elevation plus other details from your city location.







IsCatalogInMostPopularTable: catalog: 38245, numindb: 621
Update: records affected: 1



GetName: 38245 YAHSAT 1B

Hit Count: updated at: Sat, 07 Mar 2026 06:49:26 GMT